www.pogodaiklimat.ru

Погода и климат >> Архив погоды >> Россия >> Бурятия >> Улан-Удэ


АРХИВ ПОГОДЫ в Улан-Удэ

Время (UTC), дата Ветер
(напр.,м/с)
 
Видим.   Явления Облачность Т
(С)
Тd
(С)
f
(%)
Тe
(С)
Тes
(С)
Комфортность P
(гПа)
Po
(гПа)
Тmin
(С)
Tmax
(С)
R
(мм)
R24
(мм)
S
(см)
18 16.07 С 3 20 км дым 8/0
[Ac trans Ci fib]
+19.7 +14.7 73 +22 +22 комфорт 1005.5 947.5
21 16.07 Ю 2 20 км дым 4/0
[Ac trans Ci fib]
+17.3 +14.4 83 +18 +18 по сезону 1005.7 947.3
00 17.07 СЗ 2 20 км дым 9/3 1000 м
[Sc Ac trans Ci fib]
+21.7 +16.0 70 +25 +27 комфорт 1005.3 947.7 +17.3
03 17.07 З 2 20 км дым 10/1 1000 м
[Cu med, cong Ac cast Ci sp]
+24.4 +16.4 61 +28 +34 душно 1004.7 947.7
06 17.07 ЮЗ 2 50 км 9/3 600 м
[Cu med, cong Ci fib]
+27.5 +17.5 54 +32 +40 очень
душно
1002.1 945.9
09 17.07 С 3 50 км гроза без осадков 9/8 600 м
[Cb cap Ci fib]
+29.0 +17.5 50 +33 +34 очень
душно
1001.2 945.3
12 17.07 В 4
{17}
50 км {гроза, ливн. осадки} 10/8 1000 м
[Cb cap Ac trans Ci fib]
+20.9 +17.0 78 +25 +25 комфорт 1004.5 946.9 +31.4 28
15 17.07 В 3 50 км 10/6 1000 м
[Cb cap Ac trans Ci sp]
+20.1 +17.1 83 +23 +23 комфорт 1005.1 947.3
18 17.07 В 3 50 км 8/3 1000 м
[Cb cap Ac trans Ci sp]
+19.2 +16.6 85 +21 +21 комфорт 1005.5 947.5
21 17.07 В 2 50 км 4/1 1000 м
[Sc Ac trans Ci fib]
+17.9 +16.1 89 +18 +18 тепло 1005.8 947.5
00 18.07 В 3 50 км 10/9 300 м
[St Ci]
+18.6 +16.3 86 +20 +20 тепло 1006.6 948.4 +17.8
03 18.07 ЮВ 1 50 км 3/3 1000 м
[Cu hum Ci fib]
+24.4 +16.0 59 +28 +39 душно 1004.6 947.6
06 18.07 ЮЗ 2 50 км 8/5 1000 м
[Cu med, cong Ci sp]
+28.9 +16.9 48 +33 +39 очень
душно
1001.5 945.5
09 18.07 СЗ 2 50 км 10/8 1000 м
[Cb cap Ci fib]
+29.6 +16.8 46 +33 +34 душно 1000.4 944.6
12 18.07 СВ 2
{11}
50 км 8/8 1000 м
[Cb cap]
+26.3 +14.1 47 +29 +29 жарко 1002.1 945.6 +30.4
15 18.07 штиль 0 50 км 3/0
[Ac trans]
+22.1 +16.2 69 +26 +26 душно 1002.5 945.2
18 18.07 З 1 50 км 3/0
[Ci fib]
+19.4 +16.9 85 +22 +22 комфорт 1002.8 945.0
21 18.07 ЮЗ 1 50 км 4/0
[Ci fib]
+17.9 +16.2 90 +19 +19 тепло 1003.3 945.1
00 19.07 ЮЗ 2 50 км ясно +20.8 +17.3 80 +25 +30 комфорт 1002.3 944.8 +17.7
03 19.07 ЮЗ 2 50 км 4/3 1000 м
[Cu hum Ci fib]
+26.0 +16.1 54 +29 +39 душно 1000.0 943.6
06 19.07 СЗ 4 50 км 6/4 1000 м
[Cu med, cong Ci fib]
+28.9 +11.7 34 +30 +35 жарко 997.7 941.8
09 19.07 СЗ 3 50 км 10/3 1000 м
[Cu med, cong Cs]
+29.2 +10.9 32 +30 +33 жарко 996.2 940.4
12 19.07 С 4 50 км 10/3 600 м
[Cb cap Ac trans Ci sp]
+27.6 +10.9 35 +28 +28 жарко 997.0 940.9 +30.1
15 19.07 ЮЗ 1 50 км 10/0
[Ac trans Ci fib]
+23.0 +14.4 58 +27 +27 душно 998.2 941.3
18 19.07 СВ 1 50 км 10/0
[Ac trans Ci fib]
+21.8 +15.2 66 +25 +25 комфорт 998.6 941.4
21 19.07 Ю 2 50 км 10/4 1000 м
[Sc Ci fib]
+19.0 +15.0 78 +21 +21 комфорт 999.6 941.8
00 20.07 С 1 50 км 10/1 1000 м
[Cu med, cong Ci fib]
+22.4 +15.4 65 +26 +30 жарко 999.6 942.5 +18.4
03 20.07 ЮЗ 1 50 км 10/6 1000 м
[Cu med, cong Ci fib]
+25.1 +14.9 53 +28 +33 жарко 999.2 942.6
06 20.07 З 4 20 км дым 10/8 1000 м
[Cb cap Ci fib]
+22.2 +16.4 70 +26 +28 душно 999.5 942.4
09 20.07 ЮЗ 3 20 км дым 10/5 1000 м
[Cb cap Ac trans Ci sp]
+23.7 +16.1 62 +27 +28 жарко 999.1 942.3
12 20.07 ЮЗ 2 20 км дым 10/8 1000 м
[Cb cap Ac trans Ci sp]
+22.5 +15.3 64 +26 +26 жарко 1000.6 943.4 +26.1
15 20.07 штиль 0 20 км дым 10/6 1000 м
[Sc Ac trans Ci sp]
+21.3 +16.1 72 +25 +25 комфорт 1001.6 944.2
18 20.07 В 5 20 км гроза без осадков 10/5 1000 м
[Cb cap Ac trans Ci sp]
+19.9 +15.0 73 +22 +22 комфорт 1003.0 945.2
21 20.07 В 5 20 км в посл. час ливневой дождь {гроза} 10/10 1000 м
[Cb cap]
+18.6 +14.4 77 +19 +19 тепло 1004.1 946.0
00 21.07 В 7-10
{11}
20 км дым {гроза, ливн. осадки} 10/3 1000 м
[Cb cap Ac trans Ci sp]
+18.8 +13.0 69 +19 +19 тепло 1004.9 946.7 +18.3 0.0
03 21.07 В 5
{10}
20 км дым 9/3 600 м
[Cb cap Ci fib]
+21.5 +12.4 56 +24 +28 комфорт 1004.8 947.2
06 21.07 В 4 20 км дым 6/4 600 м
[Cb cap Ci sp]
+25.6 +12.8 45 +27 +33 жарко 1002.9 946.1
09 21.07 ЮВ 1 50 км 10/3 600 м
[Cb cap Ac trans Ci]
+27.5 +10.2 34 +28 +31 жарко 1001.8 945.4
12 21.07 В 3 50 км 10/1 600 м
[Cb cap Ac trans Ci fib]
+25.5 +13.4 47 +28 +28 жарко 1002.9 946.1 +27.6
15 21.07 В 1 50 км 4/0
[Ac trans Ci fib]
+21.9 +14.3 62 +25 +25 комфорт 1004.0 946.5
18 21.07 С 1 50 км 3/0
[Ci fib]
+19.1 +15.1 78 +22 +22 комфорт 1004.8 946.8
21 21.07 В 2 20 км дым 9/0
[Ac trans Ci fib]
+17.4 +14.0 80 +18 +18 тепло 1005.1 946.7
00 22.07 В 6
{11}
20 км дым 10/1 1000 м
[Cb cap Ac trans Ci sp]
+19.6 +12.9 65 +21 +22 комфорт 1004.8 946.9 +17.2
03 22.07 В 4
{10}
50 км 10/0
[Ac trans Ci sp]
+22.9 +12.8 53 +26 +30 жарко 1002.6 945.3
06 22.07 В 3 50 км 10/3 1000 м
[Cu med, cong Ac und]
+25.0 +12.9 47 +27 +30 жарко 1000.7 944.0
09 22.07 СЗ 4 20 км дым 9/6 1000 м
[Cb cap Ac trans]
+25.3 +15.9 56 +29 +29 душно 998.9 942.4
12 22.07 С 3 20 км слаб. ливневой дождь 10/10 600 м
[Cb cap]
+22.9 +15.9 65 +27 +27 душно 999.8 942.8 +26.3
15 22.07 С 3 50 км {ливн. осадки} 10/10 1000 м
[Cb cap]
+20.8 +15.8 73 +24 +24 комфорт 1000.0 942.6
18 22.07 С 3
{10}
50 км {ливн. осадки} 10/10 1000 м
[Cb cap]
+20.1 +14.8 72 +23 +23 комфорт 999.2 941.6
21 22.07 С 2 50 км {ливн. осадки} 10/10 1000 м
[Cb cap]
+18.9 +15.6 81 +21 +21 комфорт 999.4 941.6
00 23.07 В 6-11
{11}
20 км слаб. ливневой дождь 10/10 600 м
[Cb cap]
+18.9 +13.0 69 +19 +19 тепло 1000.2 942.3 +18.5 0.9
03 23.07 В 5-10
{14}
50 км в посл. час дождь {ливн. осадки} 10/10 1000 м
[Sc]
+20.7 +11.4 55 +23 +23 комфорт 999.6 942.1 +18.2
06 23.07 СВ 4
{10}
50 км {ливн. осадки, дождь} 10/10 1000 м
[Sc]
+24.1 +10.2 41 +25 +25 комфорт 998.7 941.9
09 23.07 СВ 5 50 км 10/9 1000 м
[Sc Ac und]
+25.4 +12.7 45 +27 +27 жарко 998.0 941.5
12 23.07 СЗ 3 50 км 10/8 1000 м
[Sc Ac und]
+21.7 +15.5 68 +25 +25 комфорт 1000.1 942.9 +26.3 0.0
15 23.07 З 1 50 км 10/4 1000 м
[Sc Ac trans Ci fib]
+19.6 +15.0 75 +23 +23 комфорт 1002.3 944.5

 

Местоположение метеостанции Улан-Удэ (Бурятия, Россия): широта 51.83 долгота 107.60 высота над уровнем моря 515 м.

В архиве по умолчанию представлена погода в Улан-Удэ за последнюю неделю. Архивные данные за месяц целиком и за предыдущие месяцы, начиная с января 2011 года, Вы можете получить, выбрав интересующий диапазон дат из раскрывающегося списка и нажав кнопку "Ввод!".


*Определитесь, кто Вы:
робот инопланетянин человек

Внимание! Время в таблицах - всемирное. Для получения местного времени необходимо прибавить поправку, которая равна 8 ч.

Смотрите также архив погоды в соседних городах и на ближайших метеорологических станциях:

Погода в Улан-Удэ АМС (Бурятия, Россия) (10 км)
Погода в Иволгинске (Бурятия, Россия) (29 км)
Погода в Новой Курбе (Бурятия, Россия) (67 км)
Погода в Кабанске (Бурятия, Россия) (73 км)
Погода в Сухой (Бурятия, Россия) (87 км)
Погода в Мухоршибири (Бурятия, Россия) (90 км)
Погода в Петровском Заводе (Забайкальский край, Россия) (100 км)
Погода в Новоселенгинске (Бурятия, Россия) (107 км)
Погода в Бабушкине (Бурятия, Россия) (125 км)
Погода в Горячинске (Бурятия, Россия) (134 км)

Пояснения к столбцам:

Ветер - указаны скорость ветра в м/с - средняя за 10 мин, порывы в срок и между сроками (в фигурных скобках) и направление, откуда дует ветер: С - северный, СВ - северо-восточный, В - восточный, ЮВ - юго-восточный, Ю - южный, ЮЗ - юго-западный, З - западный, СЗ - северо-западный.
Видимость - горизонтальная дальность видимости в метрах или километрах. При видимости от 1 до 10 км при отсутствии осадков обычно наблюдается дымка, при ухудшении видимости до 1 км и менее - туман. В сухую погоду видимость может ухудшаться дымом, пылью или мглою.
Явления - указаны атмосферные явления, наблюдавшиеся в срок или в последний час перед сроком; фигурными скобками обозначены явления, наблюдавшиеся между сроками (за 1-3 часа до срока); квадратными скобками обозначены град или гололедные отложения с указанием их диаметра в мм.
Облачность - указаны через наклонную черту общая и нижняя облачность в баллах и высота нижней границы облаков в метрах; квадратными скобками обозначены формы облаков: Ci - перистые, Cs - перисто-слоистые, Cc - перисто-кучевые, Ac - высококучевые, As - высокослоистые, Sc - слоисто-кучевые, Ns - слоисто-дождевые, Cu - кучевые, Cb - кучево-дождевые. Подробнее классификацию облаков см. в Атласе облаков (PDF).
T - Температура воздуха - температура, измеренная на высоте 2 м над землей.
Td - Температура точки росы - температура, при понижении до которой содержащийся в воздухе водяной пар достигнет насыщения.
f - Относительная влажность воздуха - влажноcть воздуха, измеренная на высоте 2 м над землей.
Te - Эффективная температура - температура, которую ощущает одетый по сезону человек в тени. Характеристика душности погоды. При расчете учитывается влияние влажности воздуха и скорости ветра на теплоощущения человека.
Tes - Эффективная температура на солнце - температура, которую ощущает человек, с поправкой на солнечный нагрев. Характеристика знойности погоды. Зависит от высоты солнца над горизонтом, облачности и скорости ветра. Ночью, в пасмурную погоду, а также при ветре 12 м/с и более поправка равна нулю.
P - Атмосферное давление - приведенное к уровню моря атмосферное давление.
Po - Атмосферное давление - измеренное на уровне метеостанции атмосферное давление.
Tmin - Минимальная температура - минимум температуры воздуха на высоте 2 м над землей.
Tmax - Максимальная температура - максимум температуры воздуха на высоте 2 м над землей.
R - Количество осадков - Количество выпавших осадков за период времени, мм. При наведении курсора мыши на число - период времени, за который выпало указанное количество осадков.
R24 - Количество осадков - Количество выпавших осадков за 24 часа, мм.
S - Снежный покров - Высота снежного покрова, см. При наведении курсора мыши на число - состояние снежного покрова и степень покрытия местности в баллах.